Location: Berry Creek
(51.8849°N, 111.7341°W)
Time: 15:41:37
(UTC-06:00)

Daily predictions for brighter satellites

Satellite Brightness Start Highest point End
(mag) Time Altitude Azimuth Time Altitude Azimuth Time Altitude Azimuth
USA 234 3.8 21:09:08 10° SE 21:15:31 53° SW 21:21:56 10° WNW
Cosmos 1242 Rocket 4.3 21:13:42 10° SW 21:17:10 39° WNW 21:20:38 10° N
ARGOS 4.2 21:12:44 10° ESE 21:17:19 30° ENE 21:21:57 10° N
Cosmos 1408 2.6 21:15:40 10° N 21:19:24 64° ENE 21:23:03 10° SSE
Cosmos 1844 Rocket 4.2 21:15:40 10° NNW 21:20:08 24° NE 21:24:35 10° E
BREEZE-M DEB (TANK) 4.0 21:17:39 10° SW 21:20:44 39° SSE 21:28:20 10° E
Cosmos 2360 4.3 21:15:59 10° SSW 21:21:36 61° ESE 21:27:16 10° NE
ERBS 3.7 21:19:02 10° WNW 21:22:10 33° SW 21:25:19 10° SSE
ERS-1 Rocket 3.2 21:23:16 10° SE 21:28:11 57° ENE 21:33:07 10° N
Molniya-1 4.2 21:27:39 10° S 21:29:14 20° ESE 21:31:19 10° ENE
Cosmos 1455 2.6 21:26:13 10° SSW 21:30:00 68° W 21:33:48 10° N
Cosmos 2142 Rocket 4.5 21:24:08 10° S 21:30:12 70° E 21:36:22 10° NNE
Cosmos 220 Rocket 4.4 21:29:07 10° NNW 21:33:33 66° WSW 21:37:58 10° SSE
Cosmos 1869 3.2 21:30:38 10° S 21:34:34 77° E 21:38:32 10° NNE
SeaSat 1 2.6 21:39:59 11° SE 21:44:39 65° NE 21:49:33 10° NNW
Cosmos 1908 Rocket 4.1 21:40:31 10° N 21:44:39 41° ENE 21:48:15 13° SE
Cosmos 2026 Rocket 4.2 21:39:08 10° NNW 21:45:27 78° W 21:51:36 10° S
H-2A R/B 3.8 21:44:20 11° ESE 21:47:14 19° ENE 21:50:20 10° NNE
USA 186 4.3 21:46:25 10° SW 21:48:27 18° W 21:50:35 10° NW
Cosmos 1697 Rocket 3.7 21:43:43 10° SW 21:49:13 52° NW 21:54:45 10° NNE
CENTAUR R/B 3.0 21:43:32 10° SW 21:49:52 71° NW 21:57:10 10° NE
USA 245 4.5 21:46:03 11° SE 21:51:27 50° ENE 21:56:14 10° N
MetOp-A 4.2 21:49:41 10° SSE 21:54:58 69° ENE 22:00:19 10° NNW
Cosmos 1933 3.5 21:51:26 10° S 21:55:21 51° E 21:59:17 10° NNE
Abrixas rocket 3.2 21:53:30 10° SW 21:56:22 28° SSE 21:58:01 18° ESE
Cosmos 1782 Rocket 4.3 21:54:28 10° N 21:58:31 35° ENE 22:01:20 17° SE
YAOGAN 6 2.8 21:55:04 10° S 21:58:43 71° WSW 22:02:21 10° NNW
Okean 2 Rocket 4.3 21:54:55 10° N 21:58:53 29° ENE 22:01:36 17° ESE
Cosmos 1867 3.6 21:53:30 10° NW 21:59:00 77° NE 22:03:20 17° SE
Cosmos 2263 Rocket 2.3 21:55:25 10° NNW 22:00:59 74° WSW 22:06:05 12° SSE
Meteor 1-29 3.7 22:01:40 10° N 22:05:08 58° WNW 22:08:33 10° SSW
COSMOS 2428 4.3 22:05:01 14° ESE 22:05:55 14° E 22:08:52 10° ENE
Cosmos 1733 Rocket 3.6 22:01:59 10° NNW 22:06:24 61° W 22:10:46 10° S
Cosmos 1655 Rocket 4.4 22:01:13 10° NNW 22:07:35 68° W 22:13:53 10° S
Helios 1B rocket 3.3 22:04:08 10° N 22:08:08 52° WNW 22:12:08 10° SW
H-2A R/B 2.5 22:04:41 17° SE 22:08:12 43° ENE 22:12:53 10° N
Terra 3.1 22:05:45 16° ESE 22:08:39 27° ENE 22:12:39 10° N
Cosmos 2322 Rocket 2.1 22:04:12 10° SSW 22:09:45 67° ESE 22:15:22 10° NE
Lacrosse 4 Rocket 2.9 22:08:08 10° NW 22:11:59 32° WSW 22:15:53 10° S
Cosmos 1825 3.8 22:09:45 10° NNW 22:13:13 33° W 22:16:40 10° SSW
Cosmos 1862 4.2 22:11:31 10° NNW 22:15:24 47° W 22:19:17 10° SSW
Cosmos 1862 Rocket 3.6 22:13:02 10° S 22:17:30 88° W 22:22:02 10° N
Meteor 2-10 Rocket 3.9 22:12:31 10° S 22:18:13 59° E 22:23:55 10° NNE
SL-08 RB Rocket 3.8 22:16:00 19° SSE 22:19:12 65° ENE 22:23:45 10° N
USA 267 3.6 22:14:08 10° ENE 22:20:38 70° NNW 22:27:09 10° W
Cosmos 2360 Rocket 2.7 22:15:51 10° S 22:20:55 37° ESE 22:26:04 10° NE
Cosmos 1980 Rocket 3.3 22:16:19 10° SW 22:21:50 49° NW 22:27:23 10° NNE
Cosmos 968 Rocket 3.5 22:17:29 10° NNW 22:22:42 86° WSW 22:26:25 20° SSE
Cosmos 2322 4.3 22:22:29 15° SSE 22:26:30 35° ESE 22:31:39 10° NE
Cosmos 1606 4.4 22:28:10 17° E 22:28:16 17° E 22:30:47 10° NE
NOAA 11 4.4 22:24:37 13° S 22:29:37 69° WSW 22:35:08 10° NNW
YAOGAN 11 4.4 22:27:48 15° S 22:31:19 63° WSW 22:35:39 10° NNW
ASTEX 1 4.4 22:30:23 22° ESE 22:32:39 32° ENE 22:37:05 10° N
Cosmos 2266 Rocket 4.0 22:26:59 10° N 22:33:16 89° E 22:38:21 17° S
Okean 1-7 3.6 22:32:09 27° SE 22:33:59 40° E 22:38:07 10° NNE
Cosmos 1782 4.0 22:34:53 24° ESE 22:35:28 25° E 22:38:49 10° NNE
SL-16 R/B 2.3 22:31:08 10° SSW 22:36:49 84° WNW 22:42:33 10° NNE
Cosmos 1703 Rocket 3.6 22:34:29 21° S 22:37:18 61° E 22:41:41 10° NNE
SPOT 5 3.0 22:34:04 17° S 22:37:46 70° WSW 22:42:25 10° NNW
CZ-4C R/B 3.4 22:32:22 10° NW 22:38:47 49° NNE 22:44:54 15° ESE
Cosmos 2221 Rocket 3.8 22:37:28 27° SSE 22:39:34 50° E 22:43:52 10° NNE
ATLAS 3B R/B 4.3 22:35:34 10° NW 22:41:53 32° N 22:47:54 10° ENE
ATLAS 5 CENTAUR R/B 2.8 22:37:48 10° NW 22:43:31 55° SW 22:47:28 22° SSE
Cosmos 1633 3.7 22:42:56 10° N 22:46:10 28° ENE 22:46:49 27° E
Cosmos 2333 Rocket 4.0 22:46:51 14° E 22:46:51 14° E 22:49:34 10° ENE
Nimbus 7 Rocket 4.4 22:41:28 10° NNE 22:47:23 66° ESE 22:52:10 16° S
Cosmos 2278 Rocket 3.1 22:47:39 10° NNW 22:53:00 40° NE 22:56:09 22° ESE
Meteor 1-26 Rocket 4.2 22:48:40 11° SSW 22:54:13 88° WNW 23:00:04 10° NNE
CARTOSAT-1 3.7 22:52:49 35° SE 22:54:26 59° ENE 22:58:43 10° N
SPOT 1/Viking Rocket 3.7 22:52:06 23° S 22:55:27 70° WSW 23:00:42 10° NNW
Cosmos 2237 Rocket 4.1 22:56:36 12° E 22:56:36 12° E 22:58:17 10° ENE
ARGOS 3.7 22:53:22 17° S 22:57:20 54° W 23:02:38 10° NNW
Okean 1 Rocket 4.5 22:57:31 10° N 23:01:12 25° ENE 23:02:17 22° E
Cosmos 1844 Rocket 2.6 22:59:14 10° NNW 23:04:51 86° ENE 23:07:24 34° SSE
Cosmos 2084 3.9 23:02:19 10° NW 23:06:01 46° NE 23:07:20 32° E
PSLV R/B 3.1 23:12:57 65° NNE 23:12:57 65° NNE 23:15:31 10° N
Cosmos 1602 4.1 23:09:07 10° N 23:12:51 45° ENE 23:13:17 43° E
Cosmos 1898 Rocket 4.4 23:09:12 10° NNW 23:14:01 37° NE 23:16:08 26° E
Meteor 1-11 Rocket 3.8 23:13:03 10° N 23:18:33 60° ENE 23:20:33 37° SE
CZ-4B R/B 4.5 23:15:29 10° NNE 23:19:50 73° ESE 23:21:10 44° S
Meteor 1-10 Rocket 4.3 23:17:47 33° SSE 23:20:24 64° E 23:26:13 10° NNE
Cosmos 1777 Rocket 4.4 23:15:52 10° NNW 23:21:05 58° WSW 23:23:18 33° S
SeaSat 1 4.1 23:19:46 16° SSW 23:22:32 25° WSW 23:26:37 10° NW
H-2A R/B 2.3 23:21:27 40° SSW 23:22:49 64° WSW 23:27:09 10° NNW
Cosmos 1536 3.6 23:23:20 10° N 23:27:09 37° ENE 23:27:30 36° E
Cosmos 2219 Rocket 2.9 23:27:00 33° ESE 23:27:18 34° ESE 23:32:19 10° NE
Landsat 7 4.5 23:29:02 30° SSW 23:31:02 49° W 23:35:41 10° NNW
Abrixas rocket 4.3 23:29:39 10° WSW 23:30:44 19° WSW 23:30:44 19° WSW
DMSP B5D2-2 4.0 23:31:41 10° NNE 23:37:00 90° WNW 23:39:21 35° SSW
Okean 2 Rocket 4.2 23:32:52 10° NNW 23:37:05 38° W 23:38:59 26° SW
S3M 4.0 23:36:14 40° SSE 23:38:20 60° E 23:44:27 10° NNE
Cosmos 2292 Rocket 4.4 23:36:36 10° N 23:38:46 24° NE 23:38:46 24° NE
CZ-4C R/B 3.1 23:39:34 74° ESE 23:39:46 77° ENE 23:43:29 10° NNW
Cosmos 2237 4.1 23:37:21 27° SSW 23:40:36 81° ESE 23:46:22 10° NNE
CENTAUR R/B 4.3 23:35:34 10° W 23:41:45 36° NNW 23:48:43 10° NE
Cosmos 2297 4.5 23:37:45 10° NNW 23:43:15 44° NE 23:45:41 29° ESE
Iridium 4 Rocket 2.8 23:39:28 10° N 23:43:42 72° E 23:44:04 67° SE
NOSS 3-1 (C) 4.0 23:43:38 36° ESE 23:43:43 36° ESE 23:49:35 10° NE
Cosmos 2263 Rocket 4.5 23:41:14 10° WNW 23:43:56 14° W 23:46:39 10° SW
Spot 4 3.8 23:44:31 53° S 23:45:39 84° WSW 23:50:28 10° NNW
Cosmos 1300 Rocket 3.4 23:41:43 10° N 23:46:05 79° E 23:46:35 67° SE
USA 229 DEB 3.6 23:39:20 10° SSW 23:46:10 74° SE 23:53:09 10° NE
Terra 2.4 23:44:38 36° SSW 23:46:10 50° W 23:50:50 10° NNW
USA 229 3.6 23:39:26 10° SSW 23:46:15 73° SE 23:53:14 10° NE
H-2A R/B 3.3 23:45:18 21° SW 23:47:46 31° W 23:52:12 10° NNW
IGS 5A 4.2 23:48:08 39° SW 23:48:58 45° W 23:52:59 10° NNW
COSMOS 2428 2.6 23:46:58 38° SSW 23:49:13 75° ESE 23:54:56 10° NNE
CZ-4 R/B 3.7 23:45:51 10° NNE 23:50:38 80° ESE 23:51:39 55° S
SL-24 DEB 4.5 23:53:27 50° ESE 23:54:00 53° E 23:58:32 10° N
Cosmos 2322 Rocket 4.0 23:49:21 10° WSW 23:54:17 30° NW 23:59:16 10° NNE
